Presure
312 304 318 316 334 340 323 321 336 340 364 406 487 266 333 207 213 162 192 184 199 180 187 97 93 82 184 178 113 172 183 166 168 167 178 123 174 157 131 146 138 124 136
307 308 303 302 318 307 351 352 339 332 348 381 387 387 358 227 210 226 207 194 184 200 194 179 99 96 167 130 103 111 166 159 177 181 121 149 118 142 176 150 123 120 161
301 301 298 304 302 311 311 319 363 372 347 354 398 422 421 232 224 223 211 188 189 185 192 185 81 139 101 139 173 161 109 133 153 188 157 155 148 169 138 168 130 137 148
296 269 280 285 294 298 309 307 317 353 370 364 376 414 243 229 223 217 206 195 186 183 191 193 158 112 101 157 93 120 111 146 132 182 184 166 174 117 163 132 152 188 126
309 292 284 277 283 282 280 291 308 321 345 373 358 394 435 239 227 211 196 165 180 184 186 190 181 112 134 106 104 93 164 146 108 124 153 165 165 163 129 139 159 161 144
310 299 288 273 278 283 285 277 288 293 316 345 371 371 412 422 227 201 214 223 173 192 174 181 195 165 114 174 91 90 125 158 146 111 125 142 189 144 151 159 142 109 124
300 293 279 288 288 288 280 291 284 283 294 293 344 375 396 424 284 239 217 226 194 190 178 181 145 135 167 154 170 92 97 122 179 111 137 113 124 174 147 158 108 112 119
323 292 302 277 292 280 286 289 292 316 294 305 320 353 391 408 235 216 235 230 209 190 93 174 185 128 174 153 161 162 162 94 96 117 117 151 138 106 110 172 147 145 165
296 292 306 301 285 280 291 310 309 320 325 358 325 333 369 399 348 282 246 194 212 198 186 202 177 181 161 174 181 149 133 169 105 96 104 113 160 172 171 157 151 145 179
314 299 287 300 284 288 298 305 335 379 419 427 390 339 362 383 296 244 241 222 219 195 189 183 178 180 176 139 177 178 91 155 173 174 119 154 123 186 126 118 115 96 132
327 309 316 296 290 296 299 313 339 443 454 451 399 353 357 385 314 242 215 240 206 215 146 178 188 175 182 176 179 89 180 162 183 166 170 172 124 168 185 171 94 130 182
324 335 340 300 290 304 302 320 348 446 466 489 420 360 349 384 416 307 179 242 170 219 140 154 193 181 157 182 169 102 160 181 167 190 167 100 190 91 101 124 122 166 140
294 321 349 308 301 306 304 335 386 462 497 497 407 367 358 372 412 409 235 215 224 209 199 204 174 194 181 171 184 171 156 188 175 170 174 140 145 176 148 144 101 97 103
292 326 348 315 295 303 323 342 488 509 513 501 489 377 364 376 416 404 251 229 146 211 218 195 202 173 192 165 168 179 177 131 145 164 162 122 128 168 135 163 100 146 132
285 347 350 184 300 307 327 341 517 516 501 491 489 478 385 390 428 402 415 235 215 223 218 215 201 192 192 186 145 183 189 154 168 183 152 176 148 175 129 171 149 96 175
260 357 361 307 309 307 327 343 532 524 503 478 490 520 492 399 456 404 413 248 231 227 213 215 181 208 175 191 184 169 166 186 121 184 186 84 143 189 193 163 182 190 182
256 290 394 289 204 319 324 339 521 502 515 487 488 500 537 525 451 404 419 250 246 202 219 212 190 203 86 186 185 175 173 146 165 183 156 165 119 203 190 182 154 186 179
168 283 393 201 305 299 323 338 556 531 516 479 476 488 513 554 434 405 424 390 248 216 225 201 185 200 202 177 188 188 181 165 172 171 140 162 152 188 175 181 152 188 176
269 284 391 313 314 312 321 333 473 485 486 482 488 509 531 526 436 405 430 389 252 201 228 190 212 202 188 192 183 169 156 176 140 163 172 148 170 174 155 105 148 179 193
262 285 396 310 310 314 320 330 388 476 462 479 494 533 541 512 433 411 424 418 264 225 234 215 202 202 198 206 188 177 185 193 187 150 156 176 142 157 151 181 161 171 199
237 281 328 330 285 306 318 327 346 463 452 470 512 550 474 484 404 412 326 383 313 224 220 214 192 205 204 168 189 193 168 183 190 187 161 179 184 100 159 156 162 178 179
230 257 288 358 314 311 296 324 332 460 458 484 492 442 431 440 451 458 440 419 259 233 210 210 201 204 195 135 167 200 186 159 179 146 169 155 191 211 179 178 189 161 164
265 255 291 374 285 314 306 319 326 471 467 456 445 411 402 405 413 398 407 377 223 238 203 204 181 202 210 162 170 172 192 192 162 146 165 161 150 143 136 149 157 168 184
243 259 289 373 312 314 302 317 319 475 479 419 410 394 383 390 392 396 402 396 251 231 221 147 198 213 185 195 149 169 191 174 188 134 122 142 162 151 142 142 150 155 192
236 263 290 372 315 308 302 315 318 344 490 420 392 383 381 397 393 397 384 412 247 238 213 198 206 205 200 179 203 155 118 172 187 179 173 196 156 169 167 129 140 142 172
247 258 280 365 324 305 309 265 310 319 473 488 409 391 390 393 404 407 273 420 204 219 150 213 209 175 199 194 134 185 185 142 172 165 166 189 192 167 149 155 180 153 193
Wind_Speed
45 41 36 31 31 32 27 26 24 30 28 26 34 111 112 117 119 86 113 115 110 111 109 59 51 39 95 96 64 88 83 84 78 66 66 57 55 53 53 52 48 45 47
48 44 38 35 35 33 27 29 30 31 31 25 39 75 110 130 117 123 121 119 117 116 112 112 63 63 102 80 63 59 76 80 80 74 59 62 56 58 55 54 48 46 45
54 49 45 41 36 36 33 31 27 29 33 30 27 42 81 136 129 131 125 121 121 118 114 116 51 88 65 86 92 90 61 72 60 72 64 66 61 61 54 53 51 49 48
58 52 49 49 45 41 41 37 35 30 28 34 28 33 120 142 128 126 121 124 123 121 117 112 115 74 59 96 52 69 62 77 63 73 74 70 65 48 57 53 53 45 46
52 51 51 49 49 44 41 41 44 38 30 31 37 34 42 142 137 121 109 112 118 125 120 122 122 77 83 64 66 41 91 81 56 66 59 69 61 64 53 52 54 49 55
57 53 51 53 51 44 38 35 37 40 44 38 37 44 42 64 140 112 124 133 116 130 120 124 123 123 75 114 55 49 74 85 82 50 56 63 69 52 59 61 55 41 46
71 63 61 54 50 47 47 46 39 40 41 37 43 43 46 54 138 148 130 141 130 131 128 126 89 91 117 97 106 51 55 64 97 53 66 50 53 67 58 61 45 46 46
71 75 58 64 55 54 56 59 54 53 50 50 49 47 48 52 145 132 147 145 141 134 54 123 125 85 126 97 101 105 102 46 43 54 55 71 61 44 47 60 56 50 50
86 83 66 58 60 64 65 65 61 57 60 57 61 53 52 55 94 142 154 118 142 138 128 135 131 125 117 122 118 85 74 103 57 42 49 52 70 73 62 62 56 53 60
85 84 81 60 74 71 66 74 76 72 54 53 66 61 56 60 86 157 156 141 146 133 130 126 131 128 129 92 123 119 50 93 106 99 53 66 53 71 55 48 50 33 41
83 88 68 67 78 75 76 82 83 60 47 50 59 66 57 59 72 154 137 154 127 146 90 125 139 124 129 121 120 52 117 89 101 90 93 73 64 76 60 58 36 45 53
96 85 72 74 80 77 78 88 87 59 54 48 52 66 62 62 68 130 121 160 115 152 73 91 139 133 102 129 109 65 104 113 98 94 81 53 64 46 47 61 52 59 48
126 98 78 75 80 81 80 93 79 51 52 49 57 69 69 67 72 80 160 133 151 140 132 146 124 144 122 114 127 113 88 115 112 102 97 76 77 85 70 71 51 49 53
132 102 82 73 87 85 88 95 54 47 45 39 38 68 73 72 77 85 153 157 72 149 153 134 147 116 131 106 107 120 121 68 64 95 89 60 60 80 59 60 57 49 52
134 96 88 38 91 90 93 100 43 43 33 28 33 42 77 78 77 90 92 162 142 159 152 152 148 135 133 136 66 122 121 92 99 114 80 92 65 82 63 58 67 55 55
111 98 87 88 92 94 94 107 37 34 27 26 33 34 47 80 75 92 95 167 162 160 145 151 119 147 114 137 131 109 97 122 76 112 105 28 46 87 68 61 76 52 47
109 123 89 102 57 93 95 103 36 31 27 26 30 29 29 47 82 96 97 162 169 126 153 149 124 144 23 124 130 117 111 62 90 113 70 71 41 75 76 75 65 59 65
62 123 91 63 98 90 98 103 34 29 26 19 24 27 28 38 88 96 97 114 169 143 158 127 113 142 139 113 130 126 124 93 96 86 51 73 61 88 83 80 52 62 51
130 124 98 94 95 101 97 102 60 41 26 21 20 21 29 44 85 91 94 113 166 126 164 117 147 143 131 139 120 103 69 104 53 84 78 55 66 79 72 46 51 71 50
127 125 96 98 96 100 96 101 96 40 33 25 21 16 27 42 78 86 92 104 163 158 158 148 140 141 138 135 125 101 115 121 117 69 65 80 54 49 47 82 49 63 63
106 122 111 86 95 97 95 98 103 41 34 24 12 10 30 39 70 77 99 113 144 154 145 147 118 141 137 89 114 125 91 108 115 88 69 82 94 35 57 51 60 77 61
97 104 117 79 84 92 92 92 97 39 27 17 9 23 33 39 51 63 79 92 160 161 134 136 134 138 122 71 88 129 121 74 105 47 77 60 100 86 87 85 82 44 55
116 101 116 78 90 87 91 88 92 34 18 8 19 31 35 42 48 61 76 90 127 161 129 128 111 129 140 74 90 92 123 122 83 46 78 67 65 58 55 52 46 56 77
99 105 118 78 78 79 83 83 85 36 16 7 19 30 32 43 51 66 70 82 161 161 157 81 129 145 102 128 52 89 120 100 114 50 73 53 62 60 54 50 48 49 75
90 107 114 77 68 77 80 79 79 83 18 7 11 20 27 37 52 59 74 69 157 159 149 130 138 137 137 103 132 64 32 103 116 108 91 104 58 65 60 63 61 59 66
94 105 114 81 61 71 72 58 70 75 29 7 16 16 20 25 37 50 109 66 92 144 51 157 155 100 136 136 75 123 123 86 96 85 73 100 98 62 59 65 82 63 80
Wind_Direction
359 359 352 348 328 312 287 267 275 257 268 278 271 224 214 220 210 210 208 209 205 210 208 222 225 216 223 223 228 229 232 237 239 234 236 239 246 243 247 248 256 257 260
359 360 356 350 338 333 325 301 282 256 260 267 236 228 214 204 213 202 205 203 206 208 207 211 218 225 229 230 225 229 229 235 237 238 233 240 236 245 252 252 253 256 258
2 359 356 353 348 348 335 333 322 279 259 249 253 236 217 203 208 200 204 207 206 207 208 211 209 224 224 231 224 232 227 234 237 236 234 238 240 243 249 255 252 254 258
3 355 4 2 356 346 339 332 330 325 288 265 249 244 216 205 209 208 205 204 209 207 207 210 222 216 216 233 236 228 232 232 221 237 234 238 243 238 247 248 253 271 260
358 360 2 360 353 348 343 343 335 327 310 288 244 246 240 201 207 212 213 211 211 209 204 209 215 215 234 222 229 216 232 236 239 236 231 241 243 246 242 248 249 255 259
356 355 355 354 347 341 333 323 327 323 317 297 280 237 240 226 209 207 200 201 210 205 214 209 211 221 218 224 225 215 236 230 238 239 243 240 244 243 246 255 252 255 262
359 354 352 347 342 336 336 324 302 297 292 260 282 268 237 230 202 199 203 197 208 207 211 209 207 218 224 230 227 223 231 235 235 237 237 236 243 246 247 253 256 258 259
355 355 348 349 342 343 339 329 315 298 277 273 266 262 249 229 203 213 199 197 200 208 224 214 210 209 219 232 227 229 231 213 229 239 241 241 239 242 245 249 246 248 265
358 357 347 343 342 343 333 329 320 304 283 279 256 250 243 232 211 199 195 209 200 206 210 206 214 213 218 221 220 227 225 234 230 226 236 238 246 247 243 252 248 251 270
353 356 351 341 344 340 333 332 330 318 294 269 236 236 236 227 213 198 196 202 201 205 211 210 215 213 218 222 220 222 216 231 237 239 226 237 238 239 245 248 247 253 262
350 350 345 343 345 339 338 336 331 307 299 264 230 227 228 225 213 200 210 195 206 201 223 212 211 217 215 221 220 219 224 235 231 240 244 242 241 250 243 250 242 250 268
354 350 342 343 347 341 338 338 335 310 301 275 229 219 218 223 211 201 200 195 209 199 225 224 210 216 224 217 226 223 227 227 236 228 240 226 228 229 238 247 254 267 253
356 354 346 344 344 344 343 343 336 312 285 274 217 216 215 216 207 206 200 208 201 205 209 204 218 214 218 221 218 225 233 224 230 237 239 235 241 245 241 253 240 245 253
355 354 347 348 346 346 348 349 321 295 288 273 250 214 216 212 209 203 200 200 234 205 202 211 207 222 213 226 223 219 224 230 234 234 236 236 237 249 242 243 242 243 251
355 351 349 343 347 347 352 353 308 297 285 266 251 231 216 211 211 200 203 201 201 199 205 202 206 215 212 217 237 221 218 223 236 229 239 238 247 244 240 247 246 244 268
348 353 349 350 348 348 353 353 310 302 284 259 258 252 221 211 209 196 200 196 199 201 204 200 215 209 218 214 217 227 229 221 229 228 230 254 241 235 233 260 251 248 249
350 355 351 352 344 350 355 354 326 316 295 270 261 251 241 215 201 194 197 196 195 202 203 203 211 209 234 217 218 223 224 224 230 229 236 240 236 227 237 246 251 245 257
343 351 351 351 350 351 356 356 326 311 311 290 266 250 232 217 197 193 194 197 196 202 200 206 208 208 208 219 217 220 223 225 230 229 233 232 239 237 247 247 241 247 252
355 350 351 352 349 350 357 358 354 351 341 320 295 257 226 200 196 193 195 196 195 201 199 206 201 205 214 214 220 226 220 226 223 233 235 237 238 243 245 254 249 259 232
354 353 352 351 349 349 357 358 358 355 349 343 319 268 194 189 194 195 196 196 193 198 197 204 205 205 210 209 220 225 226 222 227 235 231 229 232 237 242 247 260 259 242
344 353 353 351 352 353 357 359 359 353 350 338 325 188 179 183 191 197 193 193 193 197 202 204 209 207 209 220 210 220 230 225 226 221 231 237 237 225 246 250 256 257 252
354 351 354 352 348 351 356 1 360 356 355 355 139 158 166 175 185 189 191 195 193 195 200 206 207 209 210 199 211 215 223 226 230 224 232 228 236 232 242 245 246 249 261
354 351 354 352 349 349 351 2 1 6 14 47 145 157 169 176 179 186 192 193 192 195 200 204 195 211 206 207 219 223 219 221 226 213 234 226 226 229 238 242 245 256 253
349 353 351 353 348 347 352 360 4 14 39 146 162 169 180 181 182 189 191 192 192 194 198 190 208 206 210 210 215 224 220 228 226 210 228 224 233 234 238 246 247 251 246
345 354 353 354 349 348 350 359 7 5 40 190 212 198 194 191 189 186 195 193 191 193 200 203 203 208 211 214 210 214 219 229 225 230 233 232 228 239 245 239 243 247 250
347 354 352 353 349 346 348 11 4 9 31 78 218 218 201 196 198 196 188 192 186 194 205 201 205 202 209 214 222 218 222 230 229 235 228 234 236 234 230 241 247 248 246